• In Russia
  • List of Countries
  • For 7 days
  • Water Temperature
  • Satellite Maps
  • Weather Map
  • Weather Widgets
  • user-avatar
    Login

    Hourly Weather Amstetten

    Today, 23 February, Saturday

    Time Temperature Precipitation Wind Pressure Humidity
    00:00 -1°C° 0 mm 1 mps 753 mmHg 73%
    01:00 -2°C° 0 mm 1 mps 754 mmHg 76%
    02:00 -2°C° 0 mm 1 mps 754 mmHg 74%
    03:00 -2°C° 0 mm 1 mps 754 mmHg 73%
    04:00 -2°C° 0 mm 1 mps 754 mmHg 72%
    05:00 -3°C° 0 mm 1 mps 755 mmHg 70%
    06:00 -3°C° 0 mm 1 mps 755 mmHg 69%
    07:00 -3°C° 0 mm 1 mps 756 mmHg 66%
    08:00 -2°C° 0 mm 1 mps 755 mmHg 56%
    09:00 -1°C° 0 mm 1 mps 755 mmHg 47%
    10:00 +1°C° 0 mm 1 mps 755 mmHg 37%
    11:00 +2°C° 0 mm 1 mps 755 mmHg 34%
    12:00 +3°C° 0 mm 1 mps 754 mmHg 32%
    13:00 +4°C° 0 mm 1 mps 755 mmHg 29%
    14:00 +4°C° 0 mm 1 mps 754 mmHg 30%
    15:00 +4°C° 0 mm 1 mps 754 mmHg 31%
    16:00 +4°C° 0 mm 1 mps 753 mmHg 31%
    17:00 +2°C° 0 mm 1 mps 753 mmHg 37%
    18:00 +1°C° 0 mm 1 mps 754 mmHg 42%
    19:00 0°C° 0 mm 1 mps 754 mmHg 47%
    20:00 -1°C° 0 mm 1 mps 754 mmHg 47%
    21:00 -1°C° 0 mm 1 mps 754 mmHg 47%
    22:00 -1°C° 0 mm 1 mps 754 mmHg 46%
    23:00 -1°C° 0 mm 1 mps 754 mmHg 45%

    Tomorrow, 24 February, Sunday

    Time Temperature Precipitation Wind Pressure Humidity
    00:00 -1°C° 0 mm 1 mps 754 mmHg 45%
    01:00 -1°C° 0 mm 1 mps 754 mmHg 44%
    02:00 -1°C° 0 mm 1 mps 754 mmHg 44%
    03:00 -1°C° 0 mm 1 mps 754 mmHg 44%
    04:00 -1°C° 0 mm 1 mps 753 mmHg 43%
    05:00 -1°C° 0 mm 1 mps 753 mmHg 43%
    06:00 -1°C° 0 mm 1 mps 753 mmHg 43%
    07:00 -1°C° 0 mm 1 mps 753 mmHg 42%
    08:00 +1°C° 0 mm 1 mps 753 mmHg 38%
    09:00 +3°C° 0 mm 1 mps 753 mmHg 33%
    10:00 +4°C° 0 mm 0 mps 753 mmHg 29%
    11:00 +6°C° 0 mm 0 mps 753 mmHg 29%
    12:00 +7°C° 0 mm 0 mps 752 mmHg 29%
    13:00 +8°C° 0 mm 0 mps 752 mmHg 30%
    14:00 +8°C° 0 mm 0 mps 752 mmHg 35%
    15:00 +7°C° 0 mm 0 mps 752 mmHg 39%
    16:00 +7°C° 0 mm 0 mps 751 mmHg 44%
    17:00 +6°C° 0 mm 0 mps 752 mmHg 47%
    18:00 +4°C° 0 mm 0 mps 752 mmHg 50%
    19:00 +4°C° 0 mm 1 mps 752 mmHg 53%
    20:00 +3°C° 0 mm 1 mps 752 mmHg 55%
    21:00 +3°C° 0 mm 1 mps 752 mmHg 57%
    22:00 +2°C° 0 mm 1 mps 752 mmHg 59%
    23:00 +3°C° 0 mm 1 mps 752 mmHg 60%

    Day after tomorrow, 25 February, Monday

    Time Temperature Precipitation Wind Pressure Humidity
    00:00 +3°C° 0 mm 1 mps 753 mmHg 61%
    01:00 +3°C° 0 mm 1 mps 753 mmHg 62%
    02:00 +3°C° 0 mm 1 mps 752 mmHg 65%
    03:00 +2°C° 0 mm 1 mps 752 mmHg 67%
    04:00 +2°C° 0 mm 1 mps 752 mmHg 69%
    05:00 +2°C° 0 mm 1 mps 752 mmHg 70%
    06:00 +2°C° 0 mm 1 mps 752 mmHg 71%
    07:00 +2°C° 0 mm 1 mps 752 mmHg 72%
    08:00 +4°C° 0 mm 1 mps 752 mmHg 67%
    09:00 +6°C° 0 mm 1 mps 752 mmHg 62%
    10:00 +9°C° 0 mm 1 mps 752 mmHg 57%
    11:00 +10°C° 0 mm 1 mps 752 mmHg 56%
    12:00 +11°C° 0 mm 1 mps 752 mmHg 55%
    13:00 +12°C° 0 mm 1 mps 752 mmHg 53%
    14:00 +12°C° 0 mm 1 mps 751 mmHg 57%
    15:00 +12°C° 0 mm 1 mps 751 mmHg 60%
    16:00 +12°C° 0 mm 1 mps 751 mmHg 64%
    17:00 +10°C° 0 mm 1 mps 751 mmHg 69%
    18:00 +8°C° 0 mm 1 mps 751 mmHg 74%
    19:00 +6°C° 0 mm 1 mps 751 mmHg 80%
    20:00 +6°C° 0 mm 1 mps 751 mmHg 81%
    21:00 +6°C° 0 mm 1 mps 751 mmHg 82%
    22:00 +5°C° 0 mm 1 mps 751 mmHg 83%
    23:00 +5°C° 0 mm 1 mps 751 mmHg 84%

    26 February, Tuesday

    Time Temperature Precipitation Wind Pressure Humidity
    00:00 +5°C° 0 mm 1 mps 751 mmHg 84%
    01:00 +4°C° 0 mm 1 mps 751 mmHg 85%
    02:00 +4°C° 0 mm 1 mps 751 mmHg 85%
    03:00 +4°C° 0 mm 1 mps 750 mmHg 86%
    04:00 +4°C° 0 mm 1 mps 750 mmHg 86%
    05:00 +4°C° 0 mm 1 mps 750 mmHg 86%
    06:00 +4°C° 0 mm 1 mps 750 mmHg 86%
    07:00 +4°C° 0 mm 1 mps 750 mmHg 86%
    08:00 +4°C° 0 mm 2 mps 750 mmHg 80%
    09:00 +6°C° 0 mm 2 mps 749 mmHg 74%
    10:00 +8°C° 0 mm 2 mps 749 mmHg 68%
    11:00 +9°C° 0 mm 2 mps 749 mmHg 65%
    12:00 +11°C° 0 mm 3 mps 748 mmHg 61%
    13:00 +12°C° 0 mm 3 mps 748 mmHg 57%
    14:00 +12°C° 0 mm 3 mps 748 mmHg 58%
    15:00 +12°C° 0 mm 3 mps 748 mmHg 60%
    16:00 +12°C° 0 mm 3 mps 747 mmHg 62%
    17:00 +10°C° 0 mm 3 mps 748 mmHg 68%
    18:00 +9°C° 0 mm 2 mps 748 mmHg 74%
    19:00 +7°C° 0 mm 2 mps 748 mmHg 80%
    20:00 +7°C° 0 mm 2 mps 748 mmHg 81%
    21:00 +6°C° 0 mm 2 mps 748 mmHg 82%
    22:00 +6°C° 0 mm 2 mps 749 mmHg 83%
    23:00 +5°C° 0 mm 2 mps 749 mmHg 84%

    27 February, Wednesday

    Time Temperature Precipitation Wind Pressure Humidity
    00:00 +6°C° 0 mm 1 mps 749 mmHg 84%
    01:00 +6°C° 0 mm 1 mps 749 mmHg 84%
    02:00 +6°C° 0 mm 1 mps 749 mmHg 84%
    03:00 +5°C° 0 mm 1 mps 749 mmHg 84%
    04:00 +5°C° 0 mm 1 mps 748 mmHg 84%
    05:00 +5°C° 0 mm 1 mps 748 mmHg 84%
    06:00 +5°C° 0 mm 1 mps 748 mmHg 83%
    07:00 +5°C° 0 mm 1 mps 749 mmHg 83%
    08:00 +7°C° 0 mm 1 mps 748 mmHg 75%
    09:00 +9°C° 0 mm 1 mps 748 mmHg 68%
    10:00 +11°C° 0 mm 1 mps 748 mmHg 60%
    11:00 +12°C° 0 mm 1 mps 747 mmHg 56%
    12:00 +13°C° 0 mm 1 mps 747 mmHg 52%
    13:00 +15°C° 0 mm 2 mps 746 mmHg 48%
    14:00 +15°C° 0 mm 1 mps 746 mmHg 50%
    15:00 +15°C° 0 mm 1 mps 745 mmHg 52%
    16:00 +15°C° 0 mm 1 mps 745 mmHg 54%
    17:00 +13°C° 0 mm 1 mps 745 mmHg 59%
    18:00 +11°C° 0 mm 1 mps 745 mmHg 64%
    19:00 +9°C° 0 mm 1 mps 745 mmHg 69%
    20:00 +9°C° 0 mm 1 mps 745 mmHg 70%
    21:00 +8°C° 0 mm 1 mps 745 mmHg 71%
    22:00 +8°C° 0 mm 1 mps 744 mmHg 72%
    23:00 +8°C° 0 mm 1 mps 744 mmHg 74%

    28 February, Thursday

    Time Temperature Precipitation Wind Pressure Humidity
    00:00 +7°C° 0 mm 1 mps 744 mmHg 75%
    01:00 +6°C° 0 mm 2 mps 744 mmHg 76%
    02:00 +6°C° 0 mm 2 mps 743 mmHg 78%
    03:00 +5°C° 0 mm 2 mps 743 mmHg 79%
    04:00 +5°C° 0 mm 2 mps 742 mmHg 81%
    05:00 +5°C° 0 mm 2 mps 742 mmHg 82%
    06:00 +5°C° 0 mm 2 mps 742 mmHg 82%
    07:00 +5°C° 0 mm 2 mps 742 mmHg 83%
    08:00 +6°C° 0 mm 4 mps 742 mmHg 76%
    09:00 +8°C° 0 mm 5 mps 741 mmHg 68%
    10:00 +10°C° 0 mm 7 mps 741 mmHg 60%
    11:00 +11°C° 0 mm 7 mps 741 mmHg 58%
    12:00 +12°C° 0 mm 8 mps 740 mmHg 56%
    13:00 +13°C° 0 mm 8 mps 740 mmHg 53%
    14:00 +13°C° 0 mm 8 mps 740 mmHg 55%
    15:00 +14°C° 0 mm 7 mps 739 mmHg 57%
    16:00 +12°C° 0 mm 7 mps 739 mmHg 58%
    17:00 +11°C° 0 mm 6 mps 740 mmHg 64%
    18:00 +10°C° 0 mm 5 mps 740 mmHg 70%
    19:00 +10°C° 0 mm 4 mps 741 mmHg 75%
    20:00 +8°C° 0 mm 5 mps 741 mmHg 77%
    21:00 +7°C° 0 mm 5 mps 741 mmHg 79%
    22:00 +7°C° 0 mm 5 mps 741 mmHg 81%
    23:00 +6°C° 0 mm 5 mps 741 mmHg 82%
    Show more